• en France
  • Liste des pays
  • À 7 jours
  • Température de l'eau
  • Carte satellitaire
  • Carte météo
  • Widgets météo
  • user-avatar
    Se connecter

    Météo par heure à Hadakolob

    Ce jour, 18 Octobre, Jeudi

    Heure Température Précipitation Vent Pression Humidité
    00:00 +8°C° 0 mm 1 m/s 628 mmHg 68%
    01:00 +8°C° 0 mm 1 m/s 628 mmHg 64%
    02:00 +8°C° 0 mm 1 m/s 627 mmHg 59%
    03:00 +7°C° 0 mm 1 m/s 627 mmHg 55%
    04:00 +7°C° 0 mm 1 m/s 627 mmHg 48%
    05:00 +7°C° 0 mm 1 m/s 627 mmHg 42%
    06:00 +7°C° 0 mm 1 m/s 627 mmHg 35%
    07:00 +9°C° 0 mm 1 m/s 628 mmHg 31%
    08:00 +12°C° 0 mm 1 m/s 629 mmHg 27%
    09:00 +14°C° 0 mm 1 m/s 630 mmHg 22%
    10:00 +15°C° 0 mm 1 m/s 630 mmHg 23%
    11:00 +16°C° 0 mm 1 m/s 630 mmHg 23%
    12:00 +17°C° 0 mm 2 m/s 630 mmHg 24%
    13:00 +17°C° 0 mm 2 m/s 630 mmHg 27%
    14:00 +16°C° 0 mm 2 m/s 630 mmHg 31%
    15:00 +16°C° 0 mm 2 m/s 629 mmHg 34%
    16:00 +14°C° 0 mm 1 m/s 629 mmHg 45%
    17:00 +12°C° 0 mm 1 m/s 628 mmHg 56%
    18:00 +9°C° 0 mm 1 m/s 627 mmHg 68%
    19:00 +9°C° 0 mm 1 m/s 627 mmHg 65%
    20:00 +9°C° 0 mm 1 m/s 627 mmHg 62%
    21:00 +8°C° 0 mm 1 m/s 627 mmHg 59%
    22:00 +8°C° 0 mm 1 m/s 627 mmHg 58%
    23:00 +8°C° 0 mm 1 m/s 627 mmHg 58%

    Demain, 19 Octobre, Vendredi

    Heure Température Précipitation Vent Pression Humidité
    00:00 +7°C° 0 mm 2 m/s 627 mmHg 57%
    01:00 +6°C° 0 mm 2 m/s 627 mmHg 59%
    02:00 +6°C° 0 mm 2 m/s 627 mmHg 61%
    03:00 +6°C° 0 mm 2 m/s 627 mmHg 63%
    04:00 +6°C° 0 mm 2 m/s 626 mmHg 62%
    05:00 +6°C° 0 mm 2 m/s 626 mmHg 62%
    06:00 +6°C° 0 mm 2 m/s 626 mmHg 62%
    07:00 +8°C° 0 mm 2 m/s 627 mmHg 55%
    08:00 +11°C° 0 mm 1 m/s 628 mmHg 47%
    09:00 +14°C° 0 mm 1 m/s 629 mmHg 39%
    10:00 +15°C° 0 mm 1 m/s 629 mmHg 37%
    11:00 +16°C° 0 mm 1 m/s 629 mmHg 35%
    12:00 +18°C° 0 mm 1 m/s 629 mmHg 33%
    13:00 +18°C° 0 mm 1 m/s 629 mmHg 35%
    14:00 +18°C° 0 mm 1 m/s 629 mmHg 38%
    15:00 +16°C° 0 mm 1 m/s 628 mmHg 40%
    16:00 +14°C° 0 mm 1 m/s 628 mmHg 50%
    17:00 +12°C° 0 mm 1 m/s 627 mmHg 59%
    18:00 +10°C° 0 mm 1 m/s 626 mmHg 69%
    19:00 +10°C° 0 mm 1 m/s 626 mmHg 70%
    20:00 +9°C° 0 mm 1 m/s 626 mmHg 71%
    21:00 +8°C° 0 mm 2 m/s 626 mmHg 71%
    22:00 +8°C° 0 mm 2 m/s 626 mmHg 73%
    23:00 +7°C° 0 mm 2 m/s 626 mmHg 74%

    Après-demain, 20 Octobre, Samedi

    Heure Température Précipitation Vent Pression Humidité
    00:00 +7°C° 0 mm 2 m/s 625 mmHg 75%
    01:00 +7°C° 0 mm 2 m/s 625 mmHg 73%
    02:00 +7°C° 0 mm 2 m/s 625 mmHg 71%
    03:00 +6°C° 0 mm 2 m/s 625 mmHg 70%
    04:00 +6°C° 0 mm 2 m/s 625 mmHg 65%
    05:00 +6°C° 0 mm 2 m/s 624 mmHg 61%
    06:00 +6°C° 0 mm 2 m/s 624 mmHg 57%
    07:00 +8°C° 0 mm 2 m/s 625 mmHg 49%
    08:00 +12°C° 0 mm 1 m/s 626 mmHg 41%
    09:00 +14°C° 0 mm 1 m/s 627 mmHg 33%
    10:00 +15°C° 0 mm 1 m/s 627 mmHg 31%
    11:00 +16°C° 0 mm 2 m/s 627 mmHg 30%
    12:00 +17°C° 0 mm 2 m/s 627 mmHg 29%
    13:00 +17°C° 0 mm 2 m/s 627 mmHg 31%
    14:00 +17°C° 0 mm 2 m/s 627 mmHg 33%
    15:00 +17°C° 0 mm 2 m/s 626 mmHg 35%
    16:00 +15°C° 0 mm 1 m/s 626 mmHg 42%
    17:00 +12°C° 0 mm 1 m/s 625 mmHg 49%
    18:00 +10°C° 0 mm 1 m/s 624 mmHg 56%
    19:00 +10°C° 0 mm 1 m/s 624 mmHg 56%
    20:00 +10°C° 0 mm 1 m/s 624 mmHg 55%
    21:00 +10°C° 0 mm 1 m/s 624 mmHg 55%
    22:00 +9°C° 0 mm 1 m/s 624 mmHg 55%
    23:00 +9°C° 0 mm 1 m/s 624 mmHg 55%

    21 Octobre, Dimanche

    Heure Température Précipitation Vent Pression Humidité
    00:00 +9°C° 0 mm 1 m/s 624 mmHg 55%
    01:00 +9°C° 0 mm 1 m/s 624 mmHg 55%
    02:00 +8°C° 0 mm 2 m/s 624 mmHg 56%
    03:00 +8°C° 0 mm 2 m/s 623 mmHg 57%
    04:00 +8°C° 0 mm 2 m/s 623 mmHg 57%
    05:00 +8°C° 0 mm 2 m/s 623 mmHg 57%
    06:00 +7°C° 0 mm 2 m/s 623 mmHg 58%
    07:00 +11°C° 0 mm 1 m/s 624 mmHg 51%
    08:00 +13°C° 0 mm 1 m/s 625 mmHg 45%
    09:00 +15°C° 0 mm 1 m/s 626 mmHg 39%
    10:00 +16°C° 0 mm 1 m/s 626 mmHg 38%
    11:00 +17°C° 0 mm 2 m/s 626 mmHg 38%
    12:00 +18°C° 0 mm 2 m/s 626 mmHg 38%
    13:00 +17°C° 0 mm 2 m/s 626 mmHg 40%
    14:00 +17°C° 0 mm 2 m/s 625 mmHg 41%
    15:00 +16°C° 0 mm 1 m/s 625 mmHg 43%
    16:00 +15°C° 0 mm 1 m/s 624 mmHg 49%
    17:00 +13°C° 0 mm 1 m/s 624 mmHg 55%
    18:00 +11°C° 0 mm 1 m/s 623 mmHg 62%
    19:00 +11°C° 0 mm 1 m/s 623 mmHg 62%
    20:00 +11°C° 0 mm 1 m/s 623 mmHg 62%
    21:00 +10°C° 0 mm 2 m/s 623 mmHg 62%
    22:00 +9°C° 0 mm 2 m/s 623 mmHg 62%
    23:00 +9°C° 0 mm 2 m/s 623 mmHg 62%

    22 Octobre, Lundi

    Heure Température Précipitation Vent Pression Humidité
    00:00 +9°C° 0 mm 2 m/s 622 mmHg 62%
    01:00 +9°C° 0 mm 2 m/s 622 mmHg 62%
    02:00 +8°C° 0 mm 2 m/s 622 mmHg 62%
    03:00 +9°C° 0 mm 1 m/s 622 mmHg 63%
    04:00 +9°C° 0 mm 1 m/s 622 mmHg 62%
    05:00 +9°C° 0 mm 1 m/s 622 mmHg 62%
    06:00 +9°C° 0 mm 1 m/s 622 mmHg 62%
    07:00 +11°C° 0 mm 1 m/s 623 mmHg 57%
    08:00 +12°C° 0 mm 1 m/s 624 mmHg 53%
    09:00 +14°C° 0 mm 1 m/s 625 mmHg 49%
    10:00 +15°C° 0 mm 1 m/s 625 mmHg 47%
    11:00 +16°C° 0 mm 1 m/s 625 mmHg 46%
    12:00 +16°C° 0 mm 2 m/s 625 mmHg 45%
    13:00 +16°C° 0 mm 2 m/s 625 mmHg 46%
    14:00 +16°C° 0 mm 2 m/s 625 mmHg 47%
    15:00 +16°C° 0 mm 2 m/s 625 mmHg 48%
    16:00 +14°C° 0 mm 1 m/s 624 mmHg 55%
    17:00 +12°C° 0 mm 1 m/s 624 mmHg 63%
    18:00 +11°C° 0 mm 1 m/s 624 mmHg 70%
    19:00 +10°C° 0 mm 1 m/s 624 mmHg 68%
    20:00 +10°C° 0 mm 1 m/s 624 mmHg 67%
    21:00 +9°C° 0 mm 2 m/s 624 mmHg 66%
    22:00 +9°C° 0 mm 2 m/s 624 mmHg 66%
    23:00 +9°C° 0 mm 2 m/s 624 mmHg 67%

    23 Octobre, Mardi

    Heure Température Précipitation Vent Pression Humidité
    00:00 +8°C° 0 mm 2 m/s 624 mmHg 67%
    01:00 +8°C° 0 mm 2 m/s 624 mmHg 68%
    02:00 +8°C° 0 mm 2 m/s 624 mmHg 69%
    03:00 +8°C° 0 mm 2 m/s 624 mmHg 70%
    04:00 +8°C° 0 mm 2 m/s 624 mmHg 71%
    05:00 +8°C° 0 mm 2 m/s 624 mmHg 71%
    06:00 +8°C° 0 mm 2 m/s 624 mmHg 71%
    07:00 +10°C° 0 mm 2 m/s 625 mmHg 64%
    08:00 +13°C° 0 mm 2 m/s 625 mmHg 58%
    09:00 +15°C° 0 mm 2 m/s 626 mmHg 51%
    10:00 +16°C° 0 mm 2 m/s 626 mmHg 47%
    11:00 +17°C° 0 mm 3 m/s 626 mmHg 44%
    12:00 +18°C° 0 mm 3 m/s 626 mmHg 40%
    13:00 +17°C° 0 mm 3 m/s 626 mmHg 42%
    14:00 +17°C° 0 mm 3 m/s 626 mmHg 44%
    15:00 +17°C° 0 mm 3 m/s 625 mmHg 45%
    16:00 +14°C° 0 mm 3 m/s 625 mmHg 52%
    17:00 +12°C° 0 mm 3 m/s 624 mmHg 59%
    18:00 +11°C° 0 mm 3 m/s 624 mmHg 67%
    19:00 +10°C° 0 mm 3 m/s 624 mmHg 68%
    20:00 +10°C° 0 mm 3 m/s 623 mmHg 70%
    21:00 +9°C° 0 mm 3 m/s 623 mmHg 72%
    22:00 +9°C° 0 mm 3 m/s 623 mmHg 72%
    23:00 +9°C° 0 mm 3 m/s 623 mmHg 71%
    Voir plus